Regional Weather Roundup
Issued by NWS

Home | Current Version | Previous Version | Graphics & Text | Print | Product List | Glossary On
Versions: 1 2 3 4 5 6 7 8 9 10 11 12 13 14 15 16 17 18 19 20 21 22 23 24 25 26 27 28 29 30 31 32 33 34 35 36 37 38 39 40 41 42 43 44 45 46 47 48 49 50
399
ASUS43 KDMX 220706
RWRIA

WEATHER ROUNDUP FOR IOWA
NATIONAL WEATHER SERVICE DES MOINES IA
200 AM CDT FRI SEP 22 2017

NOTE: "FAIR" INDICATES FEW OR NO CLOUDS BELOW 12,000 FEET WITH NO
SIGNIFICANT WEATHER AND/OR OBSTRUCTIONS TO VISIBILITY.

* - THESE STATIONS ARE NOT NWS STATIONS...THUS NOT UNDER NWS
QUALITY CONTROL.  THEY ALSO DO NOT REPORT WEATHER SUCH
AS PRECIPITATION OR FOG.

IAZ001>003-012>014-020>022-031>034-043>046-220800-
   NORTHWEST IOWA

CITY           SKY/WX    TMP DP  RH WIND       PRES   REMARKS
CARROLL *      CLEAR     79  72  78 S14G21    29.85R HX  82
CHEROKEE *     CLEAR     75  73  94 S10       29.81R
DENISON *      PTCLDY    77  72  83 S16       29.84S
LE MARS *      CLEAR     79  73  83 S15       29.76S HX  82
ORANGE CITY *  CLEAR     79  75  89 SE7       29.79R HX  82
SHELDON *      CLEAR     75  73  94 S10G17    29.78R
SIOUX CITY     CLEAR     78  74  87 SE12      29.76S HX  81
SPENCER        CLEAR     75  71  87 S12       29.81S
STORM LAKE *   PTCLDY    77  72  83 S17       29.83S
$$

IAZ055>058-069>071-079>083-090>094-220800-
   SOUTHWEST IOWA

CITY           SKY/WX    TMP DP  RH WIND       PRES   REMARKS
ATLANTIC *     PTCLDY    79  72  78 S13G20    29.86R HX  82
AUDUBON *      CLEAR     79  72  78 S14G22    29.88R HX  82
CLARINDA *     CLEAR     77  73  88 S8G14     29.90R
COUNCIL BLFS * PTCLDY    77  75  94 S12       29.84R
CRESTON *      CLEAR     77  70  78 S13G21    29.93R
HARLAN  *      PTCLDY    77  73  88 S13G22    29.88R
LAMONI         CLEAR     76  70  82 S9        29.93R
RED OAK *      MOCLDY    77  73  88 S9        29.87R
SHENANDOAH *   CLEAR     79  72  78 S14       29.86R HX  82
$$

IAZ047>049-059>061-072>074-084-220800-
   CENTRAL IOWA

CITY           SKY/WX    TMP DP  RH WIND       PRES   REMARKS
AMES           CLEAR     73  70  90 SE8       29.89S
ANKENY *       CLEAR     75  70  83 S5        29.90S
BOONE *        CLEAR     75  70  83 S8        29.89R
CHARITON *     PTCLDY    77  68  73 S9        29.93R
DES MOINES     PTCLDY    78  69  73 S8        29.89S HX  80
GRINNELL*      CLEAR     74  70  88 S7        29.94S
KNOXVILLE *    CLOUDY    77  68  73 S9        29.91R
MARSHALLTOWN   CLEAR     75  71  87 SE9       29.91S
NEWTON *       CLEAR     73  70  88 SE8       29.93R
PELLA *        CLOUDY    75  67  75 S6        29.94R
PERRY *          N/A     79  72  80 S14       29.87S HX  82
$$

IAZ004>006-015-016-023>025-035-036-220800-
   NORTH CENTRAL IOWA

CITY           SKY/WX    TMP DP  RH WIND       PRES   REMARKS
ALGONA *       CLEAR     75  72  88 S13       29.85S
CLARION *      PTCLDY    77  72  83 S14       29.88S
ESTHERVILLE    CLEAR     74  71  91 S12       29.82S
FORT DODGE *   CLEAR     78  70  76 S13       29.86S HX  80
MASON CITY     CLEAR     72  69  90 SE9       29.91R
FOREST CITY *    N/A     73  70  88 S9        29.88S
WEBSTER CITY * CLEAR     75  70  83 S8        29.86S
IOWA FALLS *     N/A     74  69  86 SE10      29.91F
$$

IAZ007>011-017>019-026>030-037>042-050>054-066-220800-
   NORTHEAST IOWA

CITY           SKY/WX    TMP DP  RH WIND       PRES   REMARKS
CEDAR RAPIDS   PTCLDY    75  70  84 S9        29.95R
CHARLES CITY * CLEAR     75  72  88 S12G20    29.92S
CLINTON *      CLEAR    N/A N/A N/A S8        30.00R
DECORAH *      CLEAR     77  70  78 VRB7G14   29.94R
DUBUQUE        CLEAR     72  68  87 S12       29.99R
MONTICELLO *   PTCLDY    73  70  88 SE8       29.97S
OELWEIN *      CLEAR     75  72  88 S12G18    29.95S
WATERLOO       CLEAR     74  70  87 S13       29.91R
$$

IAZ064-065-067-068-078-220800-
   EAST CENTRAL IOWA

CITY           SKY/WX    TMP DP  RH WIND       PRES   REMARKS
DAVENPORT      CLEAR     74  68  81 S7        30.01R
IOWA CITY      CLEAR     72  69  90 SE5       29.97R
MUSCATINE *    CLEAR     70  68  94 CALM      29.97S
QUAD CITIES    CLEAR     74  67  78 S7        29.98R
$$

IAZ062-063-075>077-085>089-095>099-220800-
   SOUTHEAST IOWA

CITY           SKY/WX    TMP DP  RH WIND       PRES   REMARKS
BURLINGTON     CLEAR     76  69  79 S10       29.98R
FAIRFIELD *    CLEAR     75  68  78 S12       29.95S
FORT MADISON * CLEAR     75  70  83 S5        29.99S HAZE
KEOKUK *       CLEAR     77  68  73 S7        29.98R
OSKALOOSA *      N/A     74  70  87 S7        29.94R
OTTUMWA        PTCLDY    77  71  82 S12       29.94R
WASHINGTON *   PTCLDY    73  70  88 S6        29.97S
$$

ABBREVIATIONS USED IN REMARKS
   TC - TEMPERATURES IN CELSIUS
  WCI - WIND CHILL INDEX
   HX - HEAT INDEX
  VSB - VISIBILITY
$$





USA.gov is the U.S. government's official web portal to all federal, state and local government web resources and services.